Terminal Aerodrome Forecast
Issued by NWS Wichita, KS

Home | Current Version | Previous Version | Graphics & Text | Print | Product List | Glossary On
Versions: 1 2 3 4 5 6 7 8 9 10 11 12 13 14 15 16 17 18 19 20 21 22 23 24 25 26 27 28 29 30 31 32 33 34 35
000
FTUS43 KICT 212333
TAFICT
TAF
KICT 212333Z 2200/2224 14005KT 1/2SM -DZ FG SCT001 OVC003
     FM220300 17005KT 2SM BR SCT003 OVC006
     FM221500 18012KT 4SM BR OVC010=

USA.gov is the U.S. government's official web portal to all federal, state and local government web resources and services.